Theta_e
301 301 302 302 302 303 302 302 302 302 302 302 302 302 303 304 304 305 306 307 308 309 309 310 310 310 310 310 309 308 308 307 306 307 308 307 306 305 304 304 304 303 303
299 300 300 300 300 300 300 300 301 301 301 301 301 300 300 300 301 301 302 303 304 304 305 305 306 306 307 307 308 308 306 306 305 305 305 305 304 303 302 301 301 300 298
298 298 297 297 297 297 297 297 297 298 299 299 299 299 299 298 298 298 299 300 301 302 302 302 302 303 303 304 305 305 305 305 304 303 304 304 303 300 298 296 295 295 294
295 295 295 295 294 294 295 295 295 295 296 297 297 297 297 297 297 296 296 296 298 298 298 299 299 300 300 301 302 303 303 303 303 301 301 301 300 295 293 291 289 290 289
293 293 293 293 293 293 293 294 294 294 294 294 295 295 296 295 295 294 294 294 294 294 295 295 295 296 296 298 298 300 301 300 301 300 299 299 297 288 288 290 289 288 287
292 292 292 292 291 291 292 292 292 292 292 292 293 293 294 295 295 294 293 292 292 292 292 293 293 294 295 296 297 297 297 298 298 298 299 298 297 296 291 289 287 285 286
292 291 291 291 290 290 290 290 291 291 291 291 291 291 291 292 292 292 291 290 290 290 291 291 291 292 293 293 294 294 294 295 295 296 296 296 296 296 293 288 287 286 287
291 291 290 290 289 289 289 289 289 289 289 289 289 290 290 290 290 290 289 289 289 290 290 289 289 290 291 291 291 291 291 291 292 292 292 292 292 294 294 291 289 287 286
290 289 289 288 288 288 288 288 288 288 288 289 289 289 289 290 290 289 287 287 288 288 288 289 289 289 289 289 289 289 289 289 290 289 289 289 290 291 291 289 286 285 285
287 286 287 286 286 286 285 285 286 285 286 286 288 288 288 289 288 287 286 286 287 287 288 288 288 288 288 288 288 288 288 289 288 288 288 288 288 289 289 289 286 285 284
284 284 284 284 283 283 282 282 282 282 282 283 284 286 286 286 287 286 285 285 286 286 286 287 287 287 287 287 287 287 287 287 288 288 287 286 287 287 287 286 286 285 284
281 281 281 281 281 281 280 281 281 282 282 281 282 284 285 285 285 285 284 284 285 285 286 287 286 286 286 287 287 286 286 287 287 287 286 286 285 285 284 284 284 284 284
278 278 278 278 278 278 278 278 280 282 283 282 282 282 283 284 284 285 284 284 285 285 286 285 285 285 285 285 285 285 286 287 286 286 286 285 284 284 284 283 283 284 284
275 276 275 274 275 275 277 277 278 280 281 282 282 283 284 285 285 285 284 284 285 285 284 284 284 285 285 285 286 286 285 285 285 285 284 283 283 283 282 282 281 281 280
273 273 272 273 273 273 274 275 276 277 279 281 282 283 284 285 286 285 285 285 285 284 284 284 285 286 286 286 285 285 284 284 284 284 283 283 282 282 281 281 281 280 279
270 270 271 270 272 272 273 274 275 277 279 281 283 284 285 284 284 286 285 285 285 284 284 285 285 285 286 286 285 285 284 284 284 283 283 283 283 282 281 280 280 279 278
269 269 269 269 271 271 272 273 274 276 278 281 282 283 284 284 285 285 286 285 284 284 284 284 284 284 284 284 284 283 283 282 284 284 283 283 282 282 281 280 279 279 278
270 270 268 269 269 270 271 272 273 275 277 280 281 281 281 281 283 285 286 285 283 281 279 278 278 278 279 279 279 280 280 281 281 281 281 281 281 281 280 280 279 278 277
269 269 269 268 269 270 270 272 274 276 279 280 279 279 279 279 280 281 284 280 277 275 275 275 275 276 276 277 277 278 278 278 279 279 278 278 278 278 277 277 276 275 275
269 270 269 268 269 271 273 274 276 279 277 276 276 275 275 276 275 275 275 274 274 273 273 273 273 274 274 274 274 275 275 275 275 275 275 275 275 275 275 274 274 274 274
268 268 269 268 270 271 272 275 276 275 274 272 272 273 272 272 271 270 271 271 271 271 271 272 272 272 272 272 272 272 273 272 273 272 272 273 273 273 272 272 272 272 271
266 267 268 269 270 271 271 272 272 272 271 271 270 269 270 271 269 268 269 269 269 269 269 269 269 269 269 269 269 269 269 270 270 270 270 270 271 271 271 270 270 270 269
267 267 268 268 269 269 270 269 269 269 269 268 268 268 268 268 268 267 267 267 267 267 267 268 268 268 268 268 268 268 267 267 267 267 267 267 267 267 268 268 268 268 267
267 267 266 267 267 268 268 267 267 267 267 267 267 267 267 267 266 266 266 266 266 266 266 266 266 266 266 266 266 266 266 266 266 266 266 266 266 266 266 266 266 266 265
266 266 266 265 266 266 266 266 266 266 266 266 266 265 265 265 265 265 265 265 265 265 265 265 265 265 265 265 265 265 265 265 265 265 265 265 265 265 265 265 265 264 264
265 265 265 265 265 265 264 264 264 265 264 264 264 264 264 264 264 263 263 263 264 264 264 264 265 265 265 265 265 265 265 264 264 264 264 264 264 264 264 264 263 263 263
Wind_Speed
18 17 18 18 18 17 17 18 19 18 18 18 18 18 19 20 21 21 21 22 24 26 28 31 33 34 35 33 33 35 34 30 19 47 32 30 32 33 34 35 38 41 44
17 17 18 18 18 19 19 20 20 21 21 21 20 20 19 20 21 22 23 24 23 25 26 27 30 29 33 34 34 33 34 34 32 30 36 31 33 35 35 35 38 41 44
16 17 17 18 18 19 19 20 20 22 22 23 23 24 24 23 23 22 21 22 23 24 26 27 31 29 31 31 30 31 33 32 34 32 36 33 31 30 30 32 35 37 40
15 16 16 17 18 19 20 21 22 22 23 23 23 24 24 25 25 23 22 23 23 25 26 28 31 31 32 32 31 31 31 33 33 29 32 31 28 29 28 22 24 31 33
12 14 15 17 19 21 23 25 26 26 25 25 26 26 26 26 23 26 26 26 28 28 28 29 29 31 32 33 35 33 30 29 29 27 26 25 21 14 15 20 22 22 28
13 15 18 21 24 26 28 29 29 29 28 28 27 27 28 27 28 29 27 28 29 27 29 30 29 31 32 30 32 34 37 33 27 24 26 23 26 22 22 22 18 10 4
16 19 22 25 27 28 30 30 30 30 30 30 29 28 28 29 31 30 28 29 30 28 27 29 31 29 29 30 32 33 34 35 35 31 27 29 29 26 23 21 22 18 15
18 22 25 27 29 31 32 33 33 31 31 31 33 33 33 34 32 30 27 29 31 32 30 27 29 30 27 28 30 31 31 31 32 33 32 35 31 31 30 29 29 22 9
20 23 25 29 32 34 35 36 36 37 38 38 37 37 37 39 34 31 27 29 29 30 30 29 25 29 28 25 26 28 29 28 28 29 28 29 29 28 25 24 15 15 6
19 23 26 28 30 33 32 34 35 35 37 36 38 37 37 37 34 29 25 25 26 24 23 22 23 25 25 22 23 25 26 25 23 24 25 22 20 19 20 23 22 17 7
22 25 27 28 31 32 33 30 31 30 31 32 34 34 30 30 31 29 24 24 23 25 23 22 21 23 23 21 20 23 25 27 24 21 17 15 12 10 14 17 17 16 14
22 25 28 29 29 30 31 31 27 25 26 25 25 27 22 22 28 29 24 22 21 23 23 22 22 17 18 19 20 21 21 17 17 13 8 4 2 4 7 7 11 12 9
25 28 30 31 31 30 28 29 24 22 24 24 22 23 23 22 26 25 24 18 18 19 17 15 17 18 16 15 14 15 12 9 7 6 1 5 6 8 9 11 12 12 6
26 28 27 26 26 24 21 22 23 23 23 23 22 22 23 22 21 17 20 17 18 13 15 16 14 13 11 9 7 7 8 7 5 3 4 6 8 10 10 11 13 13 14
23 23 22 20 21 25 23 23 24 26 24 27 26 25 25 22 19 22 21 18 12 12 14 9 9 8 7 7 8 9 8 7 5 3 6 8 9 11 10 8 9 7 5
22 19 18 21 21 21 23 28 22 24 25 26 26 27 22 22 24 20 13 9 7 8 5 7 7 8 8 9 9 10 11 9 6 5 7 8 8 6 5 4 4 3 5
20 21 19 19 19 21 22 22 27 28 22 20 19 19 17 15 16 11 8 4 3 2 5 6 8 10 10 10 10 10 10 10 10 8 7 6 5 5 4 3 3 3 5
20 21 19 17 18 20 21 22 22 23 22 23 13 9 5 8 7 6 6 5 4 8 8 8 8 9 9 9 9 9 9 9 9 8 8 6 5 4 4 3 2 1 3
19 18 19 18 18 21 22 22 22 22 19 12 11 8 8 7 6 1 4 8 8 9 9 9 10 10 10 9 9 9 9 9 8 7 7 6 5 5 4 4 3 2 3
16 18 18 16 17 18 19 18 19 11 5 5 8 11 8 1 7 12 13 13 12 11 10 10 10 10 10 9 9 9 9 10 10 9 9 8 7 6 5 4 4 3 3
15 15 15 13 13 15 15 13 9 4 3 5 8 11 9 9 10 11 12 12 12 10 9 9 9 9 9 9 9 9 9 9 9 8 7 7 6 6 4 4 3 2 3
10 11 11 11 11 10 9 7 5 3 3 3 5 8 10 11 10 9 10 10 10 9 8 8 8 8 9 9 8 7 7 7 7 6 6 6 5 4 4 3 2 2 1
8 8 7 7 8 7 5 4 4 4 4 4 4 6 8 9 8 8 8 8 7 6 6 5 5 6 6 6 6 6 6 6 6 6 6 6 5 4 4 3 2 2 2
6 6 6 5 6 5 4 4 4 4 4 4 4 5 6 6 5 4 4 4 4 4 4 5 5 5 6 5 5 5 5 5 5 5 5 5 4 4 4 3 3 4 3
5 4 4 4 4 4 4 4 4 3 3 3 3 3 3 2 3 4 5 5 6 6 6 5 5 6 6 6 7 6 6 6 6 5 6 6 5 5 4 4 5 5 5
4 4 4 3 3 3 3 3 3 3 4 5 5 6 6 6 7 7 7 7 6 6 7 7 7 8 9 9 9 10 10 9 8 8 9 9 9 8 7 7 7 7 6
Wind_Direction
51 47 43 35 31 25 19 11 6 1 355 350 343 334 324 314 305 297 287 282 276 273 268 267 267 267 262 259 254 252 248 241 248 272 270 272 269 263 258 256 256 258 261
45 41 36 30 24 19 11 4 358 351 347 344 341 336 330 322 314 306 298 292 284 279 277 275 272 271 267 267 264 257 254 251 247 263 272 265 264 263 263 260 258 257 257
39 35 28 23 17 12 5 359 355 350 346 342 337 333 328 324 319 313 302 294 288 283 280 278 278 277 274 270 266 263 263 258 252 253 267 269 267 262 256 257 256 259 260
31 25 19 12 6 1 355 351 348 347 343 339 335 330 326 322 318 316 310 301 293 287 282 277 275 273 271 273 271 265 263 264 264 255 259 264 262 259 255 251 252 253 252
20 13 2 355 352 348 346 343 341 339 337 334 332 329 326 323 318 319 314 307 302 295 289 284 280 278 280 278 274 273 271 262 259 258 259 263 254 238 227 249 240 245 252
7 359 353 347 344 342 339 337 336 334 331 330 329 327 324 321 320 317 313 306 303 295 292 292 291 291 291 286 280 277 276 270 265 259 261 258 257 250 243 232 225 207 248
354 348 344 341 338 336 334 333 332 329 327 326 323 321 318 316 320 317 312 306 301 295 292 294 295 292 289 293 291 286 281 275 271 269 267 263 267 259 241 220 212 216 228
344 340 338 336 333 332 331 330 328 326 323 320 318 318 316 317 322 319 312 305 301 298 294 291 292 294 290 291 292 287 284 283 282 280 274 277 275 275 255 239 233 223 214
338 334 332 330 328 327 325 325 324 322 319 317 315 315 316 315 318 318 314 306 298 294 295 294 292 296 295 296 290 285 284 281 284 286 284 281 279 273 259 233 188 173 180
328 324 322 322 321 319 318 316 315 315 312 311 309 310 311 312 316 315 311 303 295 294 296 294 297 298 303 296 289 288 284 286 288 293 296 295 287 262 257 241 192 182 154
314 313 314 316 315 313 312 310 308 309 307 307 306 308 306 309 314 314 308 300 292 295 295 298 297 300 300 299 295 291 289 295 295 290 291 297 290 258 218 209 207 189 171
314 314 315 316 314 312 312 309 304 301 298 301 303 302 303 303 316 318 312 303 297 293 294 298 301 305 304 303 301 298 298 297 294 286 277 264 246 136 150 168 175 173 178
313 314 316 316 316 317 311 307 303 300 295 292 293 296 300 306 310 315 317 312 310 304 301 303 305 308 310 310 312 311 310 310 297 294 299 69 104 143 151 145 148 166 164
315 316 316 314 314 313 306 300 294 293 292 291 290 293 299 301 303 305 318 317 318 306 313 316 318 321 328 331 344 354 356 353 343 32 75 106 125 132 123 135 120 121 112
316 315 314 313 310 308 303 298 292 287 283 287 287 284 287 292 300 304 309 308 316 320 320 329 339 356 11 9 16 19 10 7 20 59 109 113 118 122 122 136 134 121 103
317 314 311 312 310 306 305 305 300 293 294 290 285 285 281 294 300 297 291 297 312 323 337 2 5 17 25 14 20 28 27 26 43 76 105 119 125 127 127 102 113 91 110
309 311 310 310 309 310 310 307 307 314 306 300 298 286 287 322 297 288 284 281 338 9 26 25 23 26 32 29 34 39 35 38 61 73 91 100 99 92 57 46 48 75 93
317 315 311 307 304 305 304 301 297 298 305 310 316 301 301 321 318 280 264 181 60 55 55 41 35 34 32 31 35 34 39 41 48 54 60 60 57 46 30 31 31 85 123
316 313 315 309 306 307 303 298 294 292 294 303 320 321 295 296 328 351 181 113 86 66 56 54 53 52 47 46 45 48 51 49 52 53 53 50 39 37 42 43 54 77 116
318 318 320 311 309 308 306 304 301 297 313 345 360 349 333 303 61 64 77 83 80 72 65 61 56 54 49 45 44 44 44 46 43 45 46 45 44 47 46 47 56 59 63
315 316 318 314 309 309 311 313 318 328 16 39 35 29 47 85 78 76 77 76 77 73 66 62 59 55 51 48 47 43 47 48 46 43 40 40 41 41 43 47 47 50 88
310 310 312 312 314 316 323 329 347 356 31 41 47 42 56 76 72 70 73 72 69 65 61 53 48 43 39 37 37 34 31 30 28 27 22 22 22 17 20 24 27 33 80
326 322 325 329 325 329 334 3 20 17 35 51 49 55 56 66 67 63 61 61 59 52 44 37 29 20 18 18 17 14 10 9 8 8 8 4 357 351 348 335 317 298 265
344 343 341 349 356 354 354 26 46 46 48 56 59 66 67 59 55 48 32 17 9 359 351 350 347 343 343 346 349 349 345 343 345 344 344 340 334 331 326 316 295 278 274
344 349 347 350 4 2 347 14 20 32 26 31 26 5 19 3 334 326 318 313 313 313 315 320 321 319 318 318 318 317 314 310 312 312 315 314 309 305 297 287 279 273 263
301 306 307 313 319 322 320 325 321 322 320 315 311 307 305 302 299 299 299 302 305 308 311 312 311 309 307 306 305 303 302 295 287 289 294 295 294 292 287 279 272 263 260